Location: Goettingen
(51.5300°N, 9.9433°E)
Time: 22:57:03
(UTC+02:00)

ISS - Pass Details

Date: 24 July 2021
Orbit: 419 x 421 km, 51.6° (Epoch: 28 July)

Event Time Altitude Azimuth Distance (km) Brightness Sun altitude
Rises 00:40:39 0° 283° (WNW) 2,372 0.4 -17.9°
Reaches altitude 10° 00:42:59 10° 269° (W) 1,505 -0.8 -18.0°
Enters shadow 00:44:38 20° 245° (WSW) 1,040 -1.9 -18.0°
